Weather in Partizanskoye

Russia / Krasnoyarsk Krai     55°29′59″N   94°23′39″E
temp.,
°C
wind,
m/s
gust,
m/s
humid.,
%
clouds,
%
prec.,
mm/h
press.,
hPa
HPBL,
m
24 january, sun
sun2401:00−18ssw1192100 0.3 103420
04:00−18sw2384100 0.0 103324
07:00−20ssw338497 0.0 103422
10:00−17ssw2485100 0.0 103491
13:00−12sw2783100 0.0 1033927
16:00−13w3582100 0.0 103294
19:00−17wsw3585100 0.0 103470
22:00−17sw3481100 0.0 103480
25 january, mon
mon2501:00−17wsw3487100 0.0 103579
04:00−23nw4998100 0.1 1036231
07:00−24nw4996100 0.1 1040387
10:00−28nw4895100 0.1 1044420
13:00−29nw4691100 0.2 1046404
16:00−30nnw2393100 0.0 1046232
19:00−33ene1197100 0.1 104819
22:00−34ese2299100 0.0 104619
26 january, tue
tue2601:00−34ese2299100 0.1 104520
04:00−34ese1299100 0.1 104423
07:00−33e1199100 0.1 104221
10:00−32ene1198100 0.1 104265
13:00−30ne2194100 0.3 1040210
16:00−30nne2296100 0.1 1041185
19:00−31nne1198100 0.1 104319
22:00−32ne1198100 0.1 104419
27 january, wed
wed2701:00−35ese1110099 0.1 104519
04:00−36sse1110058 0.0 104619
07:00−36sse229829 0.0 104519
10:00−33se239324 0.0 104438
13:00−26ese349062 0.0 1039137
16:00−22se3498100 0.1 1034134
19:00−20se3499100 0.6 1031126
22:00−16ssw3997100 0.9 1028371
28 january, thu
thu2801:00−11wsw81591100 1.6 1026760
04:00−10wsw81592100 0.7 1025797
07:00−9wsw91591100 1.7 1023877
10:00−8wsw91590100 0.9 10231014
13:00−7wsw91589100 1.4 10231076
16:00−7wsw91490100 0.4 10221036
19:00−6wsw91689100 0.8 10221025
22:00−6wsw91691100 0.9 10201072